1514314800.3,1242,9.19,72660.0,-6.81,-35.53,-35.35,0,*6A
1514314801.52,1243,9.19,72654.5,-6.81,-35.53,-35.47,0,*6E
1514314802.77,1244,9.19,72650.8,-6.81,-35.65,-35.35,0,*69
1514314804.02,1245,9.19,72654.3,-6.81,-35.65,-35.53,0,*68
1514314805.24,1246,9.19,72666.3,-6.81,-35.71,-35.53,0,*6E
1514314806.49,1247,9.19,72660.3,-6.81,-35.65,-35.53,0,*6A
1514314807.72,1248,9.19,72662.3,-6.81,-35.71,-35.53,0,*60
1514314808.98,1249,9.19,72644.3,-6.85,-35.83,-35.83,0,*65
1514314810.19,1250,9.19,72632.5,-6.81,-35.77,-35.71,0,*6F
1514314811.43,1251,9.19,72622.8,-6.81,-35.95,-35.77,0,*64
1514314812.66,1252,9.19,72612.0,-6.85,-35.83,-35.77,0,*64
1514314813.87,1253,9.19,72610.5,-6.81,-35.77,-35.71,0,*6C
1514314815.13,1254,9.19,72612.5,-6.85,-35.83,-35.83,0,*69
1514314816.41,1255,9.19,72618.5,-6.87,-35.95,-35.83,0,*6D
1514314817.68,1256,9.19,72628.0,-6.87,-35.83,-35.77,0,*62
1514314818.93,1257,9.19,72632.8,-6.91,-35.65,-35.47,0,*6F
1514314820.2,1258,9.19,72634.0,-6.87,-35.53,-35.23,0,*60
1514314821.45,1259,9.19,72634.8,-6.87,-35.59,-35.41,0,*6F
1514314822.71,1260,9.19,72642.3,-6.87,-35.71,-35.41,0,*6F
1514314823.97,1261,9.19,72644.0,-6.87,-35.59,-35.41,0,*64
1514314825.24,1262,9.19,72654.5,-6.87,-35.53,-35.41,0,*6D
1514314826.49,1263,9.19,72656.0,-6.87,-35.59,-35.53,0,*65
1514314827.72,1264,9.19,72664.0,-6.87,-35.71,-35.71,0,*68
1514314828.95,1265,9.19,72662.8,-6.87,-35.77,-35.59,0,*65
1514314830.19,1266,9.19,72666.3,-6.91,-35.77,-35.59,0,*61
1514314831.46,1267,9.19,72664.3,-6.87,-35.53,-35.35,0,*6B
1514314832.73,1268,9.19,72664.3,-6.87,-35.53,-35.35,0,*64
1514314833.98,1269,9.19,72666.5,-6.91,-35.65,-35.47,0,*62
1514314835.23,1270,9.19,72648.3,-6.91,-35.65,-35.59,0,*65
1514314836.49,1271,9.19,72646.3,-6.91,-35.83,-35.71,0,*66
1514314837.75,1272,9.19,72642.0,-6.87,-35.71,-35.53,0,*6F
1514314839.03,1273,9.19,72642.3,-6.91,-35.83,-35.65,0,*61
1514314840.29,1274,9.19,72644.0,-6.87,-35.77,-35.41,0,*6C
1514314841.52,1275,9.19,72634.5,-6.91,-35.47,-35.29,0,*67
1514314842.76,1276,9.19,72624.3,-6.91,-35.47,-35.29,0,*64
1514314843.99,1277,9.19,72626.0,-6.91,-35.59,-35.29,0,*6A
1514314845.25,1278,9.19,72632.8,-6.91,-35.59,-35.41,0,*6B
1514314846.5,1279,9.19,72638.5,-6.87,-35.59,-35.35,0,*6E
1514314847.75,1280,9.19,72642.8,-6.91,-35.65,-35.47,0,*65
1514314849.0,1281,9.19,72648.8,-6.91,-35.65,-35.47,0,*64
1514314850.24,1282,9.19,72646.5,-6.91,-35.59,-35.29,0,*60
1514314851.47,1283,9.19,72646.5,-6.91,-35.59,-35.29,0,*61
1514314852.7,1284,9.19,72642.0,-6.91,-35.59,-35.59,0,*61
1514314853.93,1285,9.19,72636.5,-6.87,-35.71,-35.59,0,*6D
1514314855.2,1286,9.19,72630.0,-6.87,-35.53,-35.41,0,*67
1514314856.45,1287,9.19,72636.5,-6.91,-35.59,-35.41,0,*6B
1514314857.71,1288,9.19,72644.3,-6.91,-35.47,-35.41,0,*6B
1514314858.99,1289,9.19,72648.3,-6.87,-35.35,-35.23,0,*6C
1514314860.26,1290,9.19,72652.8,-6.87,-35.41,-35.35,0,*60
1514314861.52,1291,9.19,72652.0,-6.87,-35.71,-35.53,0,*62
1514314862.75,1292,9.19,72652.8,-6.87,-35.77,-35.59,0,*6D
1514314864.03,1293,9.19,72646.0,-6.91,-35.83,-35.65,0,*6F
1514314865.3,1294,9.19,72648.8,-6.91,-35.83,-35.77,0,*6B
1514314866.53,1295,9.19,72650.8,-6.91,-35.77,-35.59,0,*6D
1514314867.76,1296,9.19,72640.0,-6.87,-35.77,-35.71,0,*63
1514314869.04,1297,9.19,72626.5,-6.91,-35.83,-35.65,0,*6B
1514314870.27,1298,9.19,72630.8,-6.93,-35.89,-35.71,0,*69
1514314871.53,1299,9.19,72632.8,-6.93,-35.83,-35.71,0,*62
1514314872.78,1300,9.19,72624.0,-6.93,-35.83,-35.71,0,*63
1514314874.01,1301,9.19,72628.0,-6.91,-35.77,-35.59,0,*61
1514314875.27,1302,9.19,72638.5,-6.91,-35.77,-35.41,0,*6B
1514314876.5,1303,9.19,72636.0,-6.93,-35.71,-35.47,0,*68
1514314877.78,1304,9.19,72634.8,-6.93,-35.83,-35.53,0,*67
1514314879.03,1305,9.19,72632.5,-6.93,-35.89,-35.65,0,*69
1514314880.29,1306,9.19,72628.3,-6.93,-35.83,-35.47,0,*60
1514314881.54,1307,9.19,72632.5,-6.93,-35.35,-35.01,0,*6E
1514314882.74,1308,9.19,72640.8,-6.95,-35.29,-35.17,0,*6D
1514314884.02,1309,9.19,72632.3,-6.91,-35.23,-35.07,0,*63
1514314885.28,1310,9.19,72632.3,-6.91,-35.23,-34.89,0,*6C
1514314886.51,1311,9.19,72634.8,-6.91,-34.89,-34.71,0,*6B
1514314887.77,1312,9.19,72634.0,-6.91,-34.89,-34.65,0,*6D
1514314889.02,1313,9.19,72634.0,-6.91,-35.07,-34.89,0,*69
1514314890.25,1314,9.19,72638.3,-6.91,-35.13,-34.89,0,*6B
1514314891.53,1315,9.19,72640.3,-6.91,-35.23,-34.95,0,*64
1514314892.79,1316,9.19,72646.5,-6.87,-35.23,-35.01,0,*6C
1514314894.07,1317,9.19,72644.8,-6.87,-35.41,-35.07,0,*6F
1514314895.32,1318,9.19,72646.0,-6.91,-35.47,-35.23,0,*67
1514314896.57,1319,9.19,72642.3,-6.91,-35.65,-35.29,0,*6C
1514314897.81,1320,9.19,72636.8,-6.91,-35.77,-35.29,0,*65
1514314899.05,1321,9.19,72632.5,-6.91,-35.77,-35.29,0,*64
1514314900.29,1322,9.19,72620.5,-6.91,-35.77,-35.47,0,*6F
1514314901.55,1323,9.19,72632.3,-6.91,-35.65,-35.29,0,*65
1514314902.8,1324,9.19,72632.3,-6.91,-35.65,-35.29,0,*62
1514314904.04,1325,9.25,72632.0,-6.91,-35.59,-35.29,0,*6C
1514314905.29,1326,9.19,72638.8,-6.91,-35.65,-35.29,0,*60
1514314906.52,1327,9.19,72634.0,-6.91,-35.59,-35.29,0,*6E
1514314907.8,1328,9.19,72626.8,-6.91,-35.65,-35.41,0,*60
1514314909.06,1329,9.19,72622.5,-6.91,-35.77,-35.41,0,*62
1514314910.34,1330,9.19,72624.0,-6.91,-35.65,-35.41,0,*69
1514314911.57,1331,9.19,72636.8,-6.93,-35.71,-35.47,0,*69
1514314912.84,1332,9.19,72638.0,-6.93,-35.53,-35.35,0,*6F
1514314914.08,1333,9.19,72636.3,-6.93,-35.53,-35.29,0,*63
1514314915.33,1334,9.19,72640.5,-6.91,-35.59,-35.23,0,*66
1514314916.61,1335,9.19,72632.5,-6.93,-35.65,-35.35,0,*6D
1514314917.88,1336,9.19,72628.0,-6.93,-35.65,-35.35,0,*6E
1514314919.13,1337,9.19,72638.0,-6.93,-35.71,-35.35,0,*6A
1514314920.36,1338,9.19,72642.3,-6.93,-35.71,-35.47,0,*60
1514314921.58,1339,9.19,72636.5,-6.95,-35.71,-35.35,0,*62
1514314922.81,1340,9.19,72632.8,-6.93,-35.71,-35.47,0,*6F
1514314924.06,1341,9.19,72640.3,-6.93,-35.65,-35.47,0,*6B
1514314925.29,1342,9.19,72642.8,-6.95,-35.71,-35.53,0,*6E
1514314926.54,1343,9.19,72642.5,-6.95,-35.83,-35.35,0,*62
1514314927.77,1344,9.19,72642.0,-6.95,-35.83,-35.47,0,*60
1514314929.05,1345,9.19,72642.0,-6.93,-35.83,-35.53,0,*62
1514314930.3,1346,9.19,72642.3,-6.93,-35.89,-35.53,0,*6B
1514314931.55,1347,9.19,72638.5,-6.95,-35.83,-35.65,0,*63
1514314932.78,1348,9.19,72630.5,-6.95,-35.83,-35.47,0,*6C
1514314934.04,1349,9.19,72634.3,-6.93,-35.71,-35.35,0,*63
1514314935.24,1350,9.19,72640.8,-6.95,-35.71,-35.47,0,*68
1514314936.46,1351,9.19,72642.5,-6.95,-35.71,-35.35,0,*6C
1514314937.69,1352,9.19,72646.0,-6.95,-35.71,-35.35,0,*6F
1514314938.89,1353,9.19,72630.5,-6.99,-35.89,-35.59,0,*6F
1514314940.09,1354,9.19,72626.8,-6.99,-35.89,-35.59,0,*68
1514314941.32,1355,9.19,72630.0,-6.99,-35.95,-35.71,0,*6E
1514314942.55,1356,9.19,72636.3,-6.99,-35.89,-35.41,0,*63
1514314943.8,1357,9.19,72632.5,-7.01,-35.89,-35.41,0,*62
1514314945.05,1358,9.19,72632.8,-7.01,-35.89,-35.53,0,*6E
1514314946.3,1359,9.19,72638.0,-6.95,-35.83,-35.35,0,*69
1514314947.53,1360,9.19,72642.8,-6.99,-35.89,-35.41,0,*66
1514314948.78,1361,9.19,72646.5,-7.01,-35.89,-35.41,0,*67
1514314950.01,1362,9.19,72638.0,-6.99,-35.89,-35.41,0,*64
1514314951.26,1363,9.19,72628.5,-6.99,-35.95,-35.53,0,*6B
1514314952.54,1364,9.19,72634.0,-7.01,-35.95,-35.41,0,*6F
1514314953.8,1365,9.19,72632.3,-7.01,-35.77,-35.41,0,*62
1514314955.03,1366,9.19,72642.8,-6.99,-35.77,-35.53,0,*62
1514314956.26,1367,9.19,72652.5,-7.01,-35.77,-35.59,0,*69
1514314957.51,1368,9.19,72646.8,-7.01,-35.89,-35.53,0,*6D
1514314958.76,1369,9.19,72646.3,-7.01,-35.89,-35.41,0,*6F
1514314960.01,1370,9.19,72648.5,-7.01,-35.89,-35.53,0,*64
1514314961.24,1371,9.19,72642.8,-7.01,-35.77,-35.59,0,*6E
1514314962.46,1372,9.19,72634.3,-7.01,-35.89,-35.59,0,*6C
1514314963.71,1373,9.19,72632.3,-7.01,-35.95,-35.59,0,*60
1514314964.97,1374,9.19,72630.3,-7.01,-35.89,-35.41,0,*63
1514314966.2,1375,9.19,72628.0,-7.03,-35.83,-35.47,0,*6C
1514314967.43,1376,9.19,72628.8,-7.03,-35.83,-35.47,0,*6F
1514314968.66,1377,9.19,72628.5,-7.03,-35.83,-35.47,0,*6E
1514314969.89,1378,9.19,72624.0,-7.05,-35.77,-35.47,0,*6C
1514314971.14,1379,9.19,72634.0,-7.03,-35.65,-35.41,0,*6E
1514314972.39,1380,9.19,72638.3,-7.03,-35.83,-35.41,0,*60
1514314973.65,1381,9.19,72642.5,-7.01,-35.77,-35.53,0,*6B
1514314974.87,1382,9.25,72646.8,-7.03,-35.83,-35.59,0,*6B
1514314976.1,1383,9.19,72642.3,-7.03,-35.83,-35.59,0,*6A
1514314977.35,1384,9.25,72646.8,-7.05,-35.83,-35.47,0,*64
1514314978.56,1385,9.19,72640.8,-7.03,-35.77,-35.47,0,*68
1514314979.84,1386,9.19,72650.5,-7.05,-35.95,-35.65,0,*61
1514314981.05,1387,9.19,72644.5,-7.03,-36.01,-35.77,0,*6B
1514314982.31,1388,9.19,72642.0,-7.05,-35.95,-35.77,0,*6C
1514314983.56,1389,9.19,72644.8,-7.03,-35.95,-35.65,0,*68
1514314984.84,1390,9.19,72644.8,-7.05,-35.95,-35.65,0,*66
1514314986.09,1391,9.19,72640.0,-7.05,-35.83,-35.59,0,*6F
1514314987.31,1392,9.19,72632.3,-7.05,-36.01,-35.59,0,*65
1514314988.59,1393,9.19,72628.3,-7.05,-35.95,-35.65,0,*65
1514314989.82,1394,9.19,72620.8,-7.03,-35.95,-35.59,0,*6B
1514314991.05,1395,9.19,72614.5,-7.05,-35.77,-35.47,0,*6F
1514314992.32,1396,9.19,72622.0,-7.09,-35.83,-35.53,0,*6E
1514314993.53,1397,9.19,72620.0,-7.07,-35.71,-35.47,0,*69
1514314994.75,1398,9.19,72618.8,-7.07,-35.53,-35.29,0,*6E
1514314995.99,1399,9.25,72620.0,-7.07,-35.53,-35.35,0,*62
1514314997.22,1400,9.19,72618.8,-7.07,-35.71,-35.35,0,*65
1514314998.45,1401,9.19,72626.0,-7.07,-35.83,-35.47,0,*6C
1514314999.68,1402,9.19,72634.8,-7.07,-35.83,-35.47,0,*6F
1514315000.9,1403,9.19,72630.3,-7.07,-35.53,-35.29,0,*6B
1514315002.12,1404,9.19,72630.8,-7.07,-35.53,-35.29,0,*6C
1514315003.33,1405,9.19,72630.5,-7.07,-35.71,-35.47,0,*65
1514315004.56,1406,9.19,72638.3,-7.07,-35.83,-35.47,0,*6B
1514315005.76,1407,9.19,72648.5,-7.07,-35.89,-35.47,0,*60
1514315006.98,1408,9.19,72648.5,-7.07,-35.53,-35.17,0,*6D
1514315008.18,1409,9.19,72642.3,-7.07,-35.47,-35.17,0,*69
1514315009.42,1410,9.19,72628.0,-7.07,-35.53,-35.35,0,*64
1514315010.64,1411,9.25,72628.3,-7.07,-35.71,-35.35,0,*65
1514315011.89,1412,9.19,72626.5,-7.07,-35.65,-35.35,0,*63
1514315013.15,1413,9.19,72618.0,-7.09,-35.53,-35.35,0,*69
1514315014.36,1414,9.19,72618.3,-7.07,-35.71,-35.47,0,*65
1514315015.6,1415,9.19,72618.5,-7.05,-35.47,-35.23,0,*61
1514315016.87,1416,9.19,72648.0,-7.09,-35.53,-35.35,0,*6C
1514315018.11,1417,9.19,72646.3,-7.07,-35.65,-35.35,0,*66
1514315019.33,1418,9.25,72646.3,-7.07,-35.35,-35.17,0,*6C
1514315020.58,1419,9.19,72636.0,-7.09,-35.53,-35.29,0,*6E
1514315021.78,1420,9.19,72632.8,-7.07,-35.71,-35.47,0,*62
1514315023.03,1421,9.19,72636.5,-7.09,-35.65,-35.47,0,*68
1514315024.28,1422,9.19,72636.8,-7.09,-35.71,-35.35,0,*6B
1514315025.52,1423,9.19,72638.5,-7.09,-35.53,-35.17,0,*6A
1514315026.74,1424,9.19,72634.0,-7.07,-35.65,-35.47,0,*63
1514315027.94,1425,9.19,72634.8,-7.07,-35.71,-35.47,0,*67
1514315029.17,1426,9.19,72632.0,-7.09,-35.71,-35.47,0,*6A
1514315030.43,1427,9.19,72632.0,-7.09,-35.83,-35.47,0,*66
1514315031.7,1428,9.19,72630.0,-7.09,-35.83,-35.53,0,*6C
1514315032.93,1429,9.19,72628.5,-7.07,-36.01,-35.53,0,*6A
1514315034.16,1430,9.19,72630.0,-7.11,-35.95,-35.59,0,*61
1514315035.41,1431,9.19,72630.0,-7.09,-35.89,-35.65,0,*6B
1514315036.66,1432,9.25,72632.8,-7.09,-35.89,-35.53,0,*6D
1514315037.88,1433,9.25,72630.3,-7.11,-35.95,-35.59,0,*62
1514315039.08,1434,9.19,72618.8,-7.11,-35.89,-35.59,0,*68
1514315040.31,1435,9.19,72610.8,-7.11,-35.95,-35.59,0,*64
1514315041.56,1436,9.19,72638.3,-7.13,-35.95,-35.59,0,*65
1514315042.78,1437,9.25,72644.0,-7.13,-35.89,-35.59,0,*69
1514315044.03,1438,9.19,72648.3,-7.13,-35.71,-35.41,0,*68
1514315045.26,1439,9.25,72656.5,-7.11,-35.77,-35.53,0,*6E
1514315046.48,1440,9.19,72634.3,-7.11,-35.77,-35.53,0,*60
1514315047.73,1441,9.19,72624.0,-7.13,-35.71,-35.53,0,*65
1514315048.96,1442,9.19,72624.3,-7.11,-35.77,-35.53,0,*62
1514315050.21,1443,9.19,72638.8,-7.13,-35.77,-35.53,0,*61
1514315051.46,1444,9.19,72632.5,-7.13,-35.77,-35.53,0,*66
1514315052.71,1445,9.19,72636.0,-7.13,-35.77,-35.53,0,*67
1514315053.93,1446,9.19,72632.5,-7.11,-35.71,-35.35,0,*60
1514315055.17,1447,9.19,72634.5,-7.11,-35.53,-35.35,0,*61
1514315056.4,1448,9.19,72636.0,-7.11,-35.77,-35.53,0,*68
1514315057.65,1449,9.19,72638.0,-7.13,-35.77,-35.41,0,*68
1514315058.9,1450,9.19,72638.0,-7.13,-35.77,-35.53,0,*63
1514315060.15,1451,9.19,72630.8,-7.13,-35.77,-35.41,0,*61
1514315061.43,1452,9.19,72626.8,-7.13,-35.95,-35.53,0,*6D
1514315062.71,1453,9.19,72628.3,-7.13,-35.95,-35.53,0,*6C
1514315063.95,1454,9.25,72628.5,-7.13,-35.89,-35.53,0,*66
1514315065.2,1455,9.19,72626.8,-7.13,-35.89,-35.53,0,*67
1514315066.43,1456,9.19,72628.0,-7.15,-35.77,-35.41,0,*60
1514315067.64,1457,9.19,72632.5,-7.15,-35.77,-35.59,0,*68
1514315068.86,1458,9.19,72628.5,-7.15,-35.65,-35.47,0,*6B
1514315070.13,1459,9.25,72636.3,-7.17,-35.65,-35.41,0,*6E
1514315071.34,1460,9.19,72644.5,-7.15,-35.77,-35.59,0,*6C
1514315072.55,1461,9.19,72636.5,-7.15,-35.77,-35.47,0,*62
1514315073.77,1462,9.19,72618.3,-7.15,-35.95,-35.59,0,*62
1514315075.0,1463,9.19,72604.5,-7.17,-36.01,-35.59,0,*6F
1514315076.26,1464,9.19,72612.8,-7.17,-35.95,-35.59,0,*66
1514315077.51,1465,9.19,72638.0,-7.17,-35.95,-35.59,0,*67
1514315078.72,1466,9.25,72644.8,-7.15,-35.77,-35.47,0,*65
1514315079.96,1467,9.19,72642.5,-7.17,-35.77,-35.47,0,*66
1514315081.21,1468,9.19,72636.8,-7.17,-35.83,-35.47,0,*62
1514315082.47,1469,9.25,72636.3,-7.17,-35.83,-35.59,0,*6C
1514315083.7,1470,9.19,72634.8,-7.17,-36.01,-35.59,0,*6D
1514315084.95,1471,9.19,72634.0,-7.17,-35.83,-35.59,0,*65
1514315086.21,1472,9.19,72632.0,-7.17,-35.95,-35.59,0,*61
1514315087.46,1473,9.19,72628.8,-7.17,-35.95,-35.59,0,*60
1514315088.72,1474,9.19,72630.0,-7.17,-35.95,-35.59,0,*67
1514315089.95,1475,9.25,72628.0,-7.17,-35.77,-35.59,0,*6A
1514315091.21,1476,9.25,72630.3,-7.17,-35.83,-35.47,0,*6D
1514315092.46,1477,9.19,72630.8,-7.17,-35.83,-35.59,0,*63
1514315093.69,1478,9.19,72628.0,-7.17,-36.01,-35.59,0,*65
1514315094.94,1479,9.19,72630.0,-7.21,-36.01,-35.65,0,*6E
1514315096.19,1480,9.19,72622.5,-7.21,-35.89,-35.53,0,*6E
1514315097.47,1481,9.19,72606.8,-7.21,-35.83,-35.53,0,*65
1514315098.72,1482,9.19,72614.5,-7.21,-35.71,-35.53,0,*6B
1514315099.97,1483,9.19,72612.5,-7.21,-35.89,-35.65,0,*68
1514315101.19,1484,9.19,72622.3,-7.23,-35.89,-35.53,0,*68
1514315102.47,1485,9.19,72634.8,-7.21,-35.83,-35.53,0,*61
1514315103.73,1486,9.19,72648.5,-7.21,-35.83,-35.47,0,*67
1514315104.96,1487,9.25,72652.8,-7.23,-35.83,-35.47,0,*64
1514315106.16,1488,9.19,72636.8,-7.23,-35.71,-35.47,0,*66
1514315107.41,1489,9.19,72624.3,-7.21,-35.89,-35.65,0,*62
1514315108.66,1490,9.19,72628.3,-7.23,-35.83,-35.53,0,*67
1514315109.89,1491,9.19,72634.3,-7.23,-35.89,-35.65,0,*69
1514315111.17,1492,9.19,72640.5,-7.21,-35.83,-35.53,0,*67
1514315112.44,1493,9.19,72636.5,-7.21,-35.83,-35.53,0,*66
1514315113.7,1494,9.19,72636.8,-7.23,-35.83,-35.53,0,*63
1514315114.95,1495,9.19,72636.8,-7.21,-35.83,-35.47,0,*65
1514315116.18,1496,9.19,72630.8,-7.23,-35.89,-35.53,0,*6B
1514315117.41,1497,9.19,72630.8,-7.23,-35.89,-35.53,0,*6A
1514315118.66,1498,9.19,72630.0,-7.23,-35.83,-35.65,0,*6A
1514315119.89,1499,9.19,72632.3,-7.23,-36.01,-35.65,0,*62
1514315121.11,1500,9.19,72630.0,-7.23,-35.89,-35.65,0,*60
1514315122.34,1501,9.19,72632.8,-7.23,-35.89,-35.65,0,*61
1514315123.57,1502,9.25,72634.0,-7.25,-35.95,-35.71,0,*6C
1514315124.82,1503,9.19,72624.8,-7.27,-36.13,-35.71,0,*62
1514315126.05,1504,9.25,72626.0,-7.25,-35.95,-35.71,0,*6A
1514315127.28,1505,9.19,72634.5,-7.25,-35.95,-35.59,0,*61
1514315128.48,1506,9.19,72638.0,-7.25,-36.07,-35.71,0,*60
1514315129.73,1507,9.19,72630.8,-7.27,-36.13,-35.71,0,*66
1514315130.99,1508,9.19,72624.5,-7.27,-36.13,-35.77,0,*6F
1514315132.24,1509,9.25,72632.3,-7.27,-36.13,-35.77,0,*6E
1514315133.5,1510,9.19,72638.3,-7.27,-36.13,-35.77,0,*66
1514315134.73,1511,9.19,72630.8,-7.25,-36.13,-35.77,0,*65
1514315135.96,1512,9.19,72622.0,-7.27,-36.07,-35.71,0,*67
1514315137.2,1513,9.19,72640.5,-7.27,-36.13,-35.71,0,*63
1514315138.43,1514,9.19,72634.3,-7.27,-36.07,-35.71,0,*61
1514315139.68,1515,9.19,72620.5,-7.27,-36.13,-35.71,0,*65
1514315140.93,1516,9.19,72630.8,-7.27,-36.13,-35.71,0,*66
1514315142.18,1517,9.19,72624.5,-7.27,-36.13,-35.71,0,*67
1514315143.4,1518,9.19,72626.5,-7.29,-36.13,-35.77,0,*60
1514315144.66,1519,9.19,72628.3,-7.31,-36.19,-35.83,0,*69
1514315145.88,1520,9.19,72628.3,-7.29,-36.13,-35.77,0,*6B
1514315147.17,1521,9.25,72638.8,-7.31,-36.25,-35.83,0,*6D
1514315148.45,1522,9.19,72622.5,-7.31,-36.25,-35.83,0,*6E
1514315149.68,1523,9.25,72620.5,-7.29,-36.13,-35.77,0,*68
1514315150.9,1524,9.19,72640.0,-7.31,-36.19,-35.71,0,*6A
1514315152.13,1525,9.19,72632.3,-7.31,-36.19,-35.71,0,*6B
1514315153.36,1526,9.19,72636.5,-7.31,-36.07,-35.71,0,*67
1514315154.6,1527,9.25,72638.0,-7.29,-35.95,-35.65,0,*62
1514315155.85,1528,9.19,72624.5,-7.31,-36.01,-35.65,0,*6A
1514315157.11,1529,9.19,72630.5,-7.31,-35.83,-35.29,0,*6A
1514315158.33,1530,9.25,72642.0,-7.29,-35.65,-35.17,0,*6E
1514315159.55,1531,9.25,72642.5,-7.31,-35.71,-35.47,0,*66
1514315160.77,1532,9.25,72646.0,-7.29,-35.59,-35.41,0,*60
1514315162.0,1533,9.25,72644.5,-7.31,-35.89,-35.47,0,*63
1514315163.23,1534,9.25,72644.5,-7.29,-35.95,-35.47,0,*60
1514315164.46,1535,9.19,72626.5,-7.29,-35.95,-35.47,0,*61
1514315165.69,1536,9.19,72606.3,-7.31,-35.71,-35.47,0,*61
1514315166.89,1537,9.19,72604.3,-7.33,-35.71,-35.29,0,*6A
1514315168.14,1538,9.25,72620.3,-7.33,-35.65,-35.23,0,*6A
1514315169.34,1539,9.25,72646.8,-7.33,-35.47,-35.13,0,*68
1514315170.59,1540,9.19,72652.3,-7.33,-35.53,-35.23,0,*60
1514315171.8,1541,9.19,72662.8,-7.29,-35.47,-35.23,0,*6F
1514315173.05,1542,9.25,72656.0,-7.31,-35.65,-35.29,0,*6F
1514315174.28,1543,9.19,72636.5,-7.31,-35.89,-35.47,0,*64
1514315175.52,1544,9.19,72630.8,-7.33,-35.83,-35.47,0,*6B
1514315176.75,1545,9.25,72632.3,-7.33,-35.83,-35.47,0,*6A
1514315177.98,1546,9.19,72630.0,-7.33,-35.83,-35.47,0,*69
1514315179.22,1547,9.25,72632.3,-7.33,-35.83,-35.29,0,*60
1514315180.42,1548,9.19,72638.0,-7.33,-35.71,-35.47,0,*6A
1514315181.65,1549,9.25,72644.5,-7.35,-36.07,-35.59,0,*60
1514315182.91,1550,9.19,72640.0,-7.33,-35.83,-35.65,0,*6E
1514315184.14,1551,9.25,72646.3,-7.33,-35.89,-35.65,0,*65
1514315185.42,1552,9.19,72640.0,-7.35,-35.95,-35.53,0,*68
1514315186.65,1553,9.19,72640.0,-7.33,-35.83,-35.47,0,*6D
1514315187.91,1554,9.19,72642.3,-7.35,-35.89,-35.53,0,*63
1514315189.17,1555,9.19,72634.3,-7.35,-35.95,-35.59,0,*65
1514315190.43,1556,9.19,72626.0,-7.35,-35.77,-35.53,0,*60
1514315191.68,1557,9.19,72624.0,-7.35,-35.71,-35.53,0,*67
1514315192.96,1558,9.19,72626.0,-7.35,-35.83,-35.53,0,*65
1514315194.22,1559,9.25,72620.8,-7.35,-35.95,-35.59,0,*69
1514315195.45,1560,9.19,72636.5,-7.35,-35.89,-35.71,0,*64
1514315196.69,1561,9.19,72622.8,-7.37,-35.77,-35.35,0,*66
1514315197.94,1562,9.19,72634.5,-7.35,-35.71,-35.35,0,*61
1514315199.2,1563,9.19,72634.3,-7.35,-35.77,-35.53,0,*66
1514315200.46,1564,9.19,72640.5,-7.35,-35.77,-35.53,0,*61
1514315201.72,1565,9.25,72636.0,-7.35,-35.95,-35.71,0,*6C
1514315202.98,1566,9.25,72634.3,-7.35,-35.77,-35.53,0,*63
1514315204.24,1567,9.19,72638.0,-7.35,-35.95,-35.59,0,*64
1514315205.44,1568,9.19,72634.5,-7.37,-35.77,-35.59,0,*65
1514315206.64,1569,9.25,72642.0,-7.37,-35.89,-35.59,0,*65
1514315207.88,1570,9.25,72638.5,-7.37,-35.95,-35.71,0,*6A
1514315209.11,1571,9.25,72628.3,-7.39,-35.89,-35.59,0,*62
1514315210.33,1572,9.19,72626.0,-7.37,-35.71,-35.53,0,*62
1514315211.59,1573,9.25,72628.0,-7.39,-35.71,-35.35,0,*6D
1514315212.82,1574,9.25,72626.0,-7.37,-35.77,-35.53,0,*62
1514315214.03,1575,9.25,72624.5,-7.37,-35.77,-35.59,0,*69
1514315215.23,1576,9.25,72616.3,-7.37,-35.77,-35.71,0,*60
1514315216.44,1577,9.25,72616.5,-7.37,-35.77,-35.59,0,*6B
1514315217.67,1578,9.19,72616.5,-7.37,-35.77,-35.53,0,*6E
1514315218.88,1579,9.25,72614.8,-7.37,-35.77,-35.59,0,*65
1514315220.13,1580,9.19,72618.5,-7.39,-35.71,-35.53,0,*61
1514315221.39,1581,9.19,72622.3,-7.39,-35.89,-35.53,0,*67
1514315222.64,1582,9.19,72624.3,-7.39,-35.71,-35.35,0,*63
1514315223.88,1583,9.19,72630.3,-7.39,-35.71,-35.29,0,*6F
1514315225.13,1584,9.25,72622.3,-7.39,-35.71,-35.35,0,*65
1514315226.39,1585,9.19,72616.8,-7.39,-35.71,-35.35,0,*64
1514315227.64,1586,9.19,72612.3,-7.39,-35.77,-35.53,0,*61
1514315228.9,1587,9.25,72618.5,-7.39,-35.77,-35.35,0,*60
1514315230.16,1588,9.19,72604.0,-7.39,-35.77,-35.35,0,*6F
1514315231.39,1589,9.19,72602.3,-7.39,-35.77,-35.59,0,*64
1514315232.63,1590,9.25,72606.5,-7.43,-35.77,-35.59,0,*61
1514315233.89,1591,9.25,72618.0,-7.39,-35.77,-35.35,0,*67
1514315235.11,1592,9.25,72626.3,-7.39,-35.71,-35.17,0,*62
1514315236.34,1593,9.19,72628.3,-7.39,-35.59,-35.17,0,*69
1514315237.57,1594,9.19,72622.8,-7.39,-35.59,-35.29,0,*63
1514315238.84,1595,9.19,72626.8,-7.43,-35.65,-35.35,0,*6D
1514315240.09,1596,9.25,72632.3,-7.39,-35.53,-35.17,0,*66
1514315241.31,1597,9.19,72624.5,-7.39,-35.59,-35.17,0,*6D
1514315242.54,1598,9.19,72622.8,-7.39,-35.59,-35.17,0,*62
1514315243.81,1599,9.25,72614.5,-7.43,-35.65,-35.41,0,*62
1514315245.05,1600,9.25,72626.5,-7.43,-35.77,-35.59,0,*6B
1514315246.3,1601,9.19,72634.5,-7.43,-35.47,-35.07,0,*62
1514315247.56,1602,9.19,72618.0,-7.43,-35.35,-35.01,0,*62
1514315248.81,1603,9.25,72614.0,-7.39,-35.53,-35.13,0,*6D
1514315250.04,1604,9.25,72612.5,-7.39,-35.59,-35.29,0,*69
1514315251.27,1605,9.19,72608.3,-7.39,-35.59,-35.29,0,*68
1514315252.5,1606,9.25,72616.8,-7.39,-35.59,-35.29,0,*6B
1514315253.74,1607,9.25,72608.5,-7.39,-35.77,-35.29,0,*66
1514315255.02,1608,9.25,72608.0,-7.43,-35.83,-35.41,0,*61
1514315256.3,1609,9.19,72604.3,-7.43,-35.83,-35.41,0,*60
1514315257.56,1610,9.25,72610.8,-7.43,-35.77,-35.35,0,*60
1514315258.77,1611,9.19,72610.0,-7.45,-36.01,-35.47,0,*60
1514315260.06,1612,9.25,72614.5,-7.43,-35.95,-35.41,0,*6D
1514315261.29,1613,9.25,72608.0,-7.43,-35.77,-35.59,0,*69
1514315262.52,1614,9.25,72604.5,-7.43,-35.77,-35.59,0,*6E
1514315263.75,1615,9.25,72606.5,-7.45,-35.89,-35.65,0,*67
1514315265.03,1616,9.25,72626.8,-7.43,-35.83,-35.41,0,*6E
1514315266.29,1617,9.25,72610.0,-7.45,-35.83,-35.41,0,*69
1514315267.55,1618,9.25,72598.5,-7.45,-35.83,-35.41,0,*66
1514315268.81,1619,9.25,72594.0,-7.47,-35.83,-35.29,0,*6B
1514315270.1,1620,9.25,72602.0,-7.47,-35.83,-35.41,0,*6F
1514315271.37,1621,9.25,72634.5,-7.47,-35.65,-35.23,0,*62
1514315272.6,1622,9.25,72612.3,-7.45,-35.71,-35.41,0,*62
1514315273.84,1623,9.19,72600.3,-7.45,-35.53,-35.23,0,*67
1514315275.08,1624,9.25,72606.8,-7.45,-35.53,-35.23,0,*60
1514315276.34,1625,9.25,72630.0,-7.47,-35.53,-35.29,0,*69
1514315277.61,1626,9.25,72626.5,-7.47,-35.53,-35.23,0,*60
1514315278.88,1627,9.19,72620.3,-7.47,-35.53,-35.41,0,*65
1514315280.14,1628,9.25,72618.8,-7.47,-35.65,-35.29,0,*61
1514315281.4,1629,9.25,72622.0,-7.47,-35.65,-35.29,0,*60
1514315282.65,1630,9.25,72620.5,-7.45,-35.65,-35.41,0,*64
1514315283.91,1631,9.25,72616.0,-7.47,-35.65,-35.29,0,*69
1514315285.18,1632,9.19,72610.0,-7.47,-35.65,-35.41,0,*64
1514315286.42,1633,9.19,72608.8,-7.47,-35.71,-35.47,0,*66
1514315287.68,1634,9.25,72612.3,-7.47,-35.83,-35.47,0,*6C
1514315288.94,1635,9.19,72608.8,-7.47,-35.83,-35.47,0,*6D
1514315290.16,1636,9.25,72616.8,-7.49,-35.77,-35.47,0,*6B
1514315291.41,1637,9.25,72616.3,-7.47,-35.65,-35.29,0,*6F
1514315292.63,1638,9.25,72614.8,-7.49,-35.53,-35.17,0,*66
1514315293.87,1639,9.25,72618.3,-7.47,-35.47,-35.17,0,*6C
1514315295.14,1640,9.25,72628.3,-7.47,-35.53,-35.23,0,*60
1514315296.39,1641,9.25,72630.0,-7.47,-35.47,-35.23,0,*64
1514315297.64,1642,9.25,72628.0,-7.47,-35.53,-35.13,0,*61
1514315298.87,1643,9.25,72618.5,-7.49,-35.59,-35.35,0,*60
1514315300.1,1644,9.25,72626.3,-7.49,-35.71,-35.35,0,*6D
1514315301.31,1645,9.19,72622.8,-7.49,-35.71,-35.47,0,*69
1514315302.57,1646,9.25,72630.0,-7.47,-35.65,-35.29,0,*69
1514315303.83,1647,9.25,72628.0,-7.47,-35.71,-35.41,0,*63
1514315305.1,1648,9.25,72630.5,-7.47,-35.65,-35.35,0,*6A
1514315306.31,1649,9.25,72628.3,-7.49,-35.89,-35.47,0,*62
1514315307.57,1650,9.25,72624.8,-7.47,-35.71,-35.41,0,*65
1514315308.81,1651,9.25,72628.0,-7.47,-35.71,-35.47,0,*62
1514315310.01,1652,9.19,72620.5,-7.49,-35.71,-35.47,0,*6F
1514315311.25,1653,9.19,72606.8,-7.49,-35.77,-35.35,0,*6D
1514315312.48,1654,9.25,72598.3,-7.49,-35.71,-35.53,0,*6C
1514315313.72,1655,9.25,72576.3,-7.49,-35.77,-35.53,0,*6B